COSMOS 1275 DEB, 42226

Orbit data source: Space-Track

COSMOS 1275 DEB, 42226 is space debris in LEO originally from a launch on Thu, 04 Jun 1981 UTC launched from the Plesetsk Missile And Space Complex (PKMTR). Debris objects in space refer to the collection of defunct objects orbiting the Earth. Examples of debris include non-operational satellites, rocket bodies, and fragments generated from explosions, collisions, or faulty payload assembly.

Loading next visibility...
Identifier
42226, 1981-053US
Orbit
LEO
Country
Flag of CISCIS
Related business
Manufacturer
Unknown
Mission
Spacecraft
Bus & Motor
Unknown
Mass
Unknown
Launch date (UTC)
1981-06-04 (45 years ago)
Launch vehicle
Unknown
Launch site
Plesetsk Missile And Space Complex (PKMTR)
Object type
Payload
Rocket body
Debris
Shape & HBR
Unknown shape, 0.1 m
Radar Cross Section
Small (<0.1 m²)

Expand to show TLE details & history
Last TLE update: 1 week ago

TLE from 1 week ago
0 COSMOS 1275 DEB
1 42226U 81053US  26119.57998086  .00000789  00000-0  86325-3 0  9995
2 42226  82.9530 240.4730 0106465 318.0574  41.2458 13.69004471620732
Epoch: 2026-04-29T13:55Z
TLE epoch observation values (Epoch: 2026-04-29T13:55:10.346Z)
Latitude
-0.00008°
Longitude
174.14098°
Altitude
947.309 km
Speed
7.407 km/s
True Right ascension
16h 01m 53s
True Declination
0° 00' 00"
Sunlit
Object was in full shadow at epoch
Visualization orbit readout
Latitude
Unknown
Longitude
Unknown
Altitude
Unknown
Speed
Unknown
Apparent Right ascension
Unknown
Apparent Declination
Unknown
Sunlit
N/A
Visualization observer readout
Local Sidereal Time
18:41:40
Azimuth
Unknown
Elevation
Unknown
Doppler factor
Unknown
Orbital elements
Apogee altitude
1,078.858 km
Perigee altitude
921.749 km
Semi-major axis
7,378.441 km
Eccentricity
0.01065
Inclination
82.953°
RAAN
240.473°
Arg. of periapsis
318.0574°
True anomaly
42.05823°
Mean anomaly
41.2458°
Eccentric anomaly
41.6512°
Mean motion
3.42449 °/min
Orbital period
105.13 mins
BSTAR
0.00086325
Loading maneuver chart data...
Computing Atmospheric mass density...

Documentation

Showing up to 5 results
|